Preview of NWS' New Version of Forecast
This preview is not operational and should not be used for support decisions.

Regional Weather Roundup (RWR)

Issued by National Weather Service (NWS)

                            
000
ASUS46 KSEW 221710
RWRWA 

WASHINGTON REGIONAL WEATHER ROUNDUP
NATIONAL WEATHER SERVICE SEATTLE WA
1000 AM PDT THU AUG 22 2019

NOTE:"FAIR" INDICATES FEW OR NO CLOUDS BELOW 12,000 FEET WITH NO 
SIGNIFICANT WEATHER AND/OR OBSTRUCTIONS TO VISIBILITY.

WAZ507-509-555>559-221800-
SEATTLE, TACOMA, EVERETT, AND VICINITY
  
CITY           SKY/WX    TMP DP  RH WIND       PRES   REMARKS
EVERETT        PTSUNNY   60  56  86 VRB3      30.11R                  
BOEING FIELD   CLOUDY    59  54  83 SW5       30.10R                  
RENTON         CLOUDY    59  56  89 S5        30.10R FOG              
SEATAC AIRPORT CLOUDY    58  54  86 SW5       30.11R FOG              
JBLM-MCCHORD   DRIZZLE   59  55  88 W2        30.10R                  
PUYALLUP       CLOUDY    59  57  94 CALM      30.11R                  
BREMERTON      CLOUDY    58  56  93 CALM      30.11R                  
JBLM-FT LEWIS  CLOUDY    57  57 100 SW3       30.10R                  
TACOMA NARROWS CLOUDY    56  55  97 CALM      30.11R FOG              
$$
 
WAZ001-503-506-510-514-515-221800-
NORTH INTERIOR
  
CITY           SKY/WX    TMP DP  RH WIND       PRES   REMARKS
BELLINGHAM     CLOUDY    62  53  72 VRB3      30.09R                  
FRIDAY HARBOR  PTSUNNY   60  53  77 SE5       30.10R                  
EASTSOUND      PTSUNNY   63  54  72 N7        30.08S                  
PORT ANGELES   SUNNY     59  52  77 N6        30.10R                  
EDIZ HOOK      PTSUNNY   57  52  82 N3        30.09S                  
PORT TOWNSEND  PTSUNNY   64  54  68 E5        30.08S                  
NAS WHIDBEY    MOSUNNY   65  53  65 W5        30.13R                  
ARLINGTON      CLOUDY    60  55  83 CALM      30.11R                  
BURLINGTON       N/A     70  55  60 NW6       30.10R                  
$$
 
WAZ020-022-039-040-504-511-512-221800-
SOUTHWEST INTERIOR
  
CITY           SKY/WX    TMP DP  RH WIND       PRES   REMARKS
SHELTON        CLOUDY    59  55  87 SW5       30.08S                  
OLYMPIA        CLOUDY    58  54  86 SW3       30.10R                  
CHEHALIS       CLOUDY    61  54  77 CALM      30.11S                  
KELSO          SUNNY     61  53  75 CALM      30.12S                  
VANCOUVER      MOSUNNY   61  49  64 N3        30.11R                  
SCAPPOOSE, OR  CLOUDY    63  52  67 CALM      30.09F                  
PORTLAND, OR   MOSUNNY   63  50  62 VRB3      30.11R                  
$$
 
WAZ021-516-517-221800-
WASHINGTON COAST
  
CITY           SKY/WX    TMP DP  RH WIND       PRES   REMARKS
FORKS          CLOUDY    60  54  80 SE6       30.08R                  
HOQUIAM        PTSUNNY   61  54  77 W6        30.10S                  
ASTORIA, OR    CLOUDY    63  53  70 VRB3      30.10S                  
$$
 
WAZ019-023-024-040-567>569-221800-
CASCADE MOUNTAINS AND COLUMBIA GORGE
  
CITY           SKY/WX    TMP DP  RH WIND       PRES   REMARKS
STAMPEDE PASS  FOG       51  49  92 VRB6      30.09R VSB 1/2          
TROUTDALE, OR  PTSUNNY   64  51  62 SW3       30.11R                  
HOOD RIVER, OR SUNNY     63  50  63 W10G16    30.04S                  
THE DALLES, OR SUNNY     66  52  60 NW21      30.00S                  
$$

WAZ026-027-041>044-520-521-221800-
EAST SLOPES
  
CITY           SKY/WX    TMP DP  RH WIND       PRES   REMARKS
OMAK           SUNNY     72  47  40 N15       29.95S                  
WENATCHEE      SUNNY     71  42  35 NW14      29.95S                  
ELLENSBURG     SUNNY     70  47  43 NW24G32   29.97R                  
YAKIMA         SUNNY     74  46  36 N8        29.96S                  
SUNNYSIDE ARPT SUNNY     69  58  68 W5        29.96                   
YAKIMA TC      FAIR      72  42  33 N5        29.95S                  
$$

WAZ028-034-035-221800-
COLUMBIA BASIN
  
CITY           SKY/WX    TMP DP  RH WIND       PRES   REMARKS
EPHRATA        SUNNY     74  52  46 NE10      29.93F                  
MOSES LAKE     SUNNY     72  57  59 VRB5      29.95S                  
PASCO          SUNNY     76  54  46 SW9       29.95S                  
RICHLAND ARPT  SUNNY     75  55  49 MISG      29.95S                  
HERMISTON, OR  SUNNY     70  54  56 W14       29.97S                  
$$

WAZ036>038-221800-
NORTHEAST WASHINGTON
  
CITY           SKY/WX    TMP DP  RH WIND       PRES   REMARKS
SPOKANE GEIGER CLOUDY    61  53  75 SW8       29.97R                  
SPOKANE FELTS  CLOUDY    64  56  75 S6        29.96R                  
FAIRCHILD AFB  CLOUDY    60  59  97 SW7       29.97R                  
COEURDALENE,ID CLOUDY    64  58  80 SW9       29.97R                  
DEER PARK      CLOUDY    63  57  81 CALM      29.96R                  
$$

WAZ029>033-221800-
SOUTHEAST WASHINGTON
  
CITY           SKY/WX    TMP DP  RH WIND       PRES   REMARKS
PULLMAN        CLOUDY    62  57  83 W12       30.00S                  
LEWISTON, ID   PTSUNNY   70  59  68 CALM      29.94F                  
WALLA WALLA    MOSUNNY   69  51  52 S17       29.99S                  
PENDLETON, OR  SUNNY     70  48  45 W13       29.99F                  
$$